{"data":{"norad_id":43488,"intl_designator":"2018-049A","name":"SES-12","alt_names":[],"object_type":"PAYLOAD","status":"ACTIVE","operator":null,"country":"SES","launch_date":"2018-06-04","launch_site_code":"AFETR","launch_vehicle":null,"mission":null,"orbit_class":"UNKNOWN","rcs_meters":null,"size_class":null,"mass_kg":null,"dimensions":null,"purposes":["comms"],"wikipedia_slug":null,"has_3d_model":false,"image_url":null,"decayed_at":null,"tle_current":{"epoch":"2026-09-19T15:42:43.562304Z","epoch_age_seconds":87577,"freshness":"FRESH","line1":"1 43488U 18049A   26262.65467086 -.00000274  00000+0  00000+0 0  9991","line2":"2 43488   0.0274  48.3015 0001706 185.9364  95.0149  1.00271348 30369","mean_motion":1.00271348,"eccentricity":0.0001706,"inclination_deg":0.0274,"raan_deg":48.3015,"arg_perigee_deg":185.9364,"mean_anomaly_deg":95.0149,"bstar":0,"rev_number":3036,"period_min":1436.1031627898,"perigee_km":35779.524144427,"apogee_km":35793.910792772,"semimajor_km":42164.854468599,"source":"CELESTRAK","updated_at":"2026-09-20T09:00:35.686346Z"}}}